Theta_e
303 304 304 303 304 304 303 303 303 303 303 303 303 303 303 304 305 297 291 292 288 285 288 293 296 290 291 290 286 289 292 294 295 290 292 293 292 296 294 296 295 294 292 289 289 285 283 304 303 297 299 300 299 298
302 302 304 303 303 303 303 303 303 303 303 303 303 303 303 303 303 300 289 293 298 289 288 294 296 298 297 296 292 290 290 291 297 293 296 296 292 294 293 287 299 291 296 293 292 290 297 302 299 302 301 300 299 298
302 302 302 304 303 303 304 303 303 303 303 303 303 303 303 303 303 298 290 290 289 286 287 289 291 296 299 299 300 290 291 298 301 300 296 298 291 293 290 292 296 299 303 296 295 299 301 302 303 303 302 301 302 299
301 302 302 302 303 304 304 304 303 302 302 302 303 303 303 303 303 302 291 291 291 291 283 286 297 293 299 297 297 298 297 296 299 302 297 293 292 297 291 293 295 300 299 296 295 301 303 302 303 304 304 301 300 300
300 301 302 302 303 303 303 303 303 302 302 302 303 303 303 303 303 298 292 292 294 290 286 287 291 295 296 295 295 295 295 295 292 292 295 293 295 297 296 292 293 299 298 294 293 301 300 300 304 306 302 299 301 301
300 300 301 302 302 303 303 303 303 302 302 302 303 303 303 303 301 292 286 296 299 297 290 282 290 291 294 295 294 295 295 292 293 292 291 292 298 294 293 291 295 297 300 300 299 302 300 301 301 301 299 301 302 302
300 300 300 300 301 302 302 303 303 302 302 302 302 302 303 302 293 288 285 297 301 298 291 283 283 290 293 292 293 294 295 294 293 291 290 290 291 297 290 290 296 300 300 300 301 300 297 298 298 300 302 304 305 302
300 301 300 300 300 300 301 302 303 302 302 301 302 302 302 302 297 289 291 297 299 293 293 284 283 286 296 291 292 293 293 293 291 291 290 289 290 290 286 292 294 299 300 299 300 302 299 299 301 302 304 303 301 300
300 300 301 300 300 300 301 302 302 302 301 301 302 301 295 292 288 288 302 302 300 291 285 286 283 280 292 291 292 294 296 290 291 289 289 290 288 286 290 293 295 298 297 298 298 297 299 301 301 301 301 300 300 299
300 301 301 301 300 300 300 301 302 301 300 301 293 288 287 290 300 301 296 290 290 291 289 284 285 281 287 289 291 294 293 289 284 288 291 287 286 291 293 296 299 299 299 298 296 296 299 299 300 299 298 299 300 299
300 300 301 301 301 300 300 301 301 301 300 293 290 288 293 301 293 290 285 283 283 283 286 285 282 281 288 286 288 293 292 290 285 287 287 284 283 293 297 296 298 298 299 301 301 302 302 301 299 299 299 300 301 301
300 301 301 301 301 300 300 301 301 295 294 294 292 295 294 290 286 283 281 283 282 280 282 281 283 284 285 291 291 291 285 290 283 289 285 282 288 293 297 298 298 299 299 300 302 301 300 300 301 300 299 298 298 299
300 300 301 301 300 300 300 301 301 300 297 294 291 287 285 285 278 277 276 279 280 283 288 290 288 286 286 289 290 290 286 285 291 286 285 287 291 294 295 298 299 300 301 301 301 301 301 301 301 300 298 298 298 297
300 300 301 300 300 299 300 301 301 298 293 287 284 277 281 279 280 279 281 284 289 289 288 290 288 288 290 285 288 285 290 291 285 282 284 288 293 296 298 300 299 298 300 300 300 300 300 300 300 300 299 298 297 295
299 300 300 299 299 299 301 301 300 292 289 284 284 277 280 283 285 287 289 288 289 293 289 287 289 290 286 288 288 288 286 284 285 284 287 293 296 298 298 299 298 299 300 300 301 301 300 300 299 298 297 296 296 296
299 297 296 300 301 301 301 300 296 294 289 286 285 282 284 285 284 286 287 286 292 290 290 288 286 284 285 285 285 284 284 283 287 292 295 295 297 298 299 300 300 301 301 300 301 300 299 298 297 296 296 296 296 296
297 294 299 301 300 300 300 293 291 286 286 284 282 284 282 284 284 286 287 286 289 287 285 286 283 283 289 284 283 285 284 288 294 296 296 295 296 297 300 300 299 299 298 298 299 299 298 298 297 296 294 295 296 296
294 295 300 301 299 297 294 293 286 285 282 283 281 281 282 285 285 285 287 289 289 286 288 286 289 285 284 283 282 288 293 296 297 297 298 297 300 301 302 300 299 298 297 298 299 298 297 296 295 294 294 295 296 295
297 298 300 300 295 288 285 286 288 282 282 281 282 283 283 284 285 285 287 290 290 293 291 289 286 285 285 286 290 293 295 296 295 297 299 300 301 302 302 304 303 298 297 296 297 298 297 297 296 295 295 295 295 294
300 300 299 299 297 289 287 285 287 282 281 281 282 281 282 283 284 284 287 289 290 290 287 286 286 287 286 291 295 296 295 296 296 297 298 299 301 302 302 302 301 296 293 294 294 293 295 294 295 295 296 296 295 293
296 297 298 293 290 290 288 287 287 285 284 281 283 282 282 283 282 283 284 289 287 287 287 290 290 293 295 298 299 297 294 294 294 297 298 298 300 300 301 301 300 296 292 293 294 294 294 295 296 296 296 295 295 294
291 297 290 292 290 290 288 288 285 286 284 284 283 283 281 281 281 283 285 283 283 286 288 290 292 292 294 296 297 298 299 298 298 297 296 295 294 296 297 298 297 294 293 294 294 295 295 295 296 296 295 293 292 291
296 294 292 291 287 286 284 290 285 286 282 282 283 280 277 278 284 287 284 284 284 286 287 289 291 292 291 297 298 298 298 297 296 295 295 294 295 294 292 292 293 293 292 291 292 294 295 292 293 295 294 292 291 289
297 291 288 286 286 282 287 285 287 285 285 282 281 280 285 281 286 285 284 285 283 285 286 288 289 291 290 295 293 293 293 294 291 290 289 288 287 288 290 290 291 292 291 292 296 295 295 295 293 294 294 292 290 289
286 283 282 277 287 285 285 284 283 283 282 282 281 283 284 286 282 281 280 283 286 286 287 288 289 288 288 289 289 290 293 290 290 288 291 289 288 290 296 297 297 298 298 297 295 295 295 296 295 295 294 291 289 288
280 284 279 284 286 285 285 283 283 282 284 283 284 287 287 284 281 275 282 284 286 287 288 289 289 290 292 291 291 293 293 293 289 294 295 297 296 293 294 295 295 297 298 297 297 296 295 294 295 294 292 289 287 289
278 282 287 291 288 287 286 287 289 284 285 284 285 285 285 280 279 282 286 288 288 290 291 292 291 291 291 292 291 293 294 295 295 296 297 298 298 298 297 295 295 296 298 299 299 298 297 295 295 294 292 290 289 290
285 286 283 286 286 287 285 285 284 283 284 288 287 282 281 281 281 285 286 290 292 293 292 292 293 293 292 291 291 292 293 294 297 297 297 297 298 298 297 297 296 287 295 295 296 297 297 297 295 294 292 292 293 293
286 288 287 287 287 287 287 286 283 285 287 286 284 283 284 286 288 289 290 292 293 292 290 290 290 293 294 294 292 292 292 292 293 291 290 290 292 294 297 296 295 294 294 293 285 286 295 297 296 296 296 295 293 293
289 291 288 287 285 285 287 290 288 289 290 289 290 289 288 288 291 293 292 292 291 290 290 291 291 291 291 291 291 293 296 296 294 293 292 290 293 297 300 299 297 295 296 295 293 293 288 294 292 294 293 293 292 291
293 290 289 287 287 289 290 292 291 291 290 289 290 288 287 287 291 293 292 293 293 292 291 290 291 291 291 291 292 292 292 295 296 298 296 296 297 299 300 298 300 297 295 295 294 294 293 293 292 292 292 292 291 290
291 291 289 287 288 292 293 291 290 289 289 289 288 290 289 287 286 289 292 292 292 291 289 291 291 291 293 294 294 295 289 294 292 292 293 294 294 294 294 294 294 295 295 294 294 295 295 294 292 292 292 291 292 291
291 291 291 291 290 290 292 289 287 286 286 285 285 287 289 287 285 289 294 294 292 292 293 294 294 294 294 295 295 294 291 292 289 286 286 285 285 288 292 292 293 292 291 291 292 295 295 294 293 292 292 292 292 292
Wind_Speed
8 8 6 6 7 7 3 3 3 4 5 6 6 7 8 8 6 4 3 2 4 2 7 5 3 1 3 0 2 5 5 3 3 2 4 5 4 6 4 6 3 3 3 3 4 4 7 7 2 7 6 3 8 5
7 8 7 6 5 5 2 2 3 4 5 5 6 6 6 7 7 3 0 2 1 3 7 2 7 13 9 8 1 3 3 1 4 0 1 1 4 4 8 5 13 4 6 4 8 7 4 2 3 2 5 9 5 6
7 7 8 6 5 6 5 4 4 5 5 6 6 7 6 6 6 3 2 2 3 2 7 3 11 9 10 16 14 4 4 5 2 4 2 1 3 2 3 5 6 6 4 4 2 2 5 2 4 5 5 5 6 5
8 7 7 7 8 7 7 6 5 5 6 6 7 7 7 5 5 4 2 2 2 3 4 8 4 6 3 2 7 12 15 6 3 1 2 1 2 3 4 5 3 5 2 1 2 4 9 2 4 7 6 7 8 5
8 8 7 7 9 8 7 7 6 6 6 7 8 7 7 7 5 2 3 4 4 2 3 7 10 19 16 10 11 14 11 10 2 1 3 3 2 3 5 2 2 4 5 3 4 8 5 6 8 7 7 7 9 11
7 8 8 7 7 6 8 7 8 7 7 8 9 8 5 6 3 3 4 1 1 2 3 4 6 8 8 9 10 8 10 5 4 5 4 4 4 2 4 4 6 3 3 5 4 6 1 6 8 6 8 10 7 10
9 8 8 8 7 7 7 8 9 7 7 8 8 7 7 3 3 2 5 2 2 2 3 5 6 6 5 5 3 3 4 4 5 3 3 3 3 5 5 3 9 6 2 5 5 8 6 4 7 7 10 11 9 7
11 10 10 9 9 8 8 10 10 8 6 9 10 10 4 1 2 3 4 8 5 2 4 4 6 6 4 3 3 3 4 2 1 5 2 3 1 2 5 10 8 8 6 5 9 9 9 8 8 7 11 11 9 8
12 12 11 10 9 9 9 9 7 5 4 5 3 5 3 2 1 4 5 5 1 3 3 3 3 5 6 3 3 1 1 2 1 4 4 5 4 6 9 9 9 10 8 9 5 6 8 11 11 11 11 9 12 7
14 13 12 11 9 9 8 9 8 5 2 4 2 2 1 3 5 6 1 1 2 2 3 4 2 5 3 3 2 1 4 4 3 6 4 5 5 6 6 9 13 11 10 10 8 7 9 11 13 9 8 7 9 7
15 15 14 13 12 9 8 7 9 8 4 1 1 2 2 6 2 1 1 2 2 4 4 5 5 3 3 2 1 2 2 2 4 5 6 4 5 12 13 9 6 4 8 10 12 13 16 20 16 14 10 10 9 7
16 16 15 14 12 9 8 8 11 5 2 3 2 0 2 1 1 3 2 2 4 4 3 3 5 5 4 3 1 2 3 1 5 3 3 4 6 8 16 13 7 5 10 11 17 16 15 14 14 14 12 10 7 7
16 16 15 11 11 9 8 11 12 12 7 3 1 2 2 3 3 4 4 4 4 3 2 1 2 3 2 0 2 2 3 4 5 3 5 5 4 5 10 8 9 9 12 17 16 15 17 15 13 15 12 9 9 8
11 10 11 11 11 9 8 12 16 8 4 2 2 3 4 3 4 4 3 4 3 3 4 2 3 4 3 2 3 2 2 4 2 3 5 3 4 3 7 12 16 13 16 18 18 18 19 16 13 11 11 9 9 8
7 7 8 9 12 12 10 16 14 3 2 2 2 4 5 5 4 5 7 4 4 3 1 3 4 3 2 3 3 2 3 3 3 5 3 3 3 7 13 14 17 17 16 16 15 14 12 13 12 10 8 7 8 7
7 3 5 10 11 14 15 14 3 2 1 2 5 4 4 3 4 3 5 7 4 2 2 2 3 3 3 3 3 6 3 4 4 3 2 3 3 6 10 13 15 15 15 14 11 14 12 12 12 10 7 7 7 7
5 1 4 13 16 15 15 4 2 2 2 4 5 4 4 4 5 6 4 4 2 2 2 2 3 1 1 3 3 4 4 2 3 3 2 4 3 8 9 11 13 13 12 12 12 11 8 7 9 8 7 5 6 5
1 2 9 17 12 6 2 2 2 3 5 5 4 3 3 4 3 4 4 2 3 1 2 1 2 2 1 3 3 2 1 0 2 2 4 5 7 10 9 9 7 10 11 10 11 8 8 9 9 6 7 7 6 5
1 7 16 16 6 4 3 2 2 3 6 3 4 4 4 4 4 4 3 1 1 2 2 2 2 2 2 3 4 1 1 4 4 4 6 7 6 11 12 11 11 5 10 7 9 8 7 9 8 6 5 5 5 4
12 16 13 9 6 2 2 2 1 3 3 4 2 3 3 4 3 2 1 2 2 3 3 4 3 3 2 4 5 1 1 0 4 8 6 6 5 8 9 7 4 5 3 6 6 6 4 2 2 4 5 5 5 5
6 4 8 4 1 1 2 2 4 4 3 2 2 0 3 3 3 2 1 1 1 2 1 4 3 8 1 2 2 1 2 3 3 5 7 8 7 7 5 5 4 1 2 4 5 4 5 5 4 5 5 5 3 4
2 7 2 1 2 2 4 4 3 3 1 2 2 1 1 1 3 1 0 2 3 3 3 4 6 4 4 2 3 3 3 7 5 5 7 6 3 2 2 3 2 2 3 4 4 4 5 4 4 5 6 5 5 5
7 1 2 4 4 3 4 1 2 2 2 2 3 1 2 1 2 2 3 2 1 2 3 4 9 8 5 2 4 3 2 3 3 2 1 3 3 3 3 3 3 3 2 3 3 4 3 5 6 8 7 6 6 4
3 2 3 3 4 3 2 3 3 2 2 1 2 2 2 1 2 3 2 2 3 3 4 6 6 7 4 3 2 3 2 1 2 0 1 2 2 1 2 1 1 2 2 2 4 4 4 5 7 6 7 7 5 5
2 3 2 4 2 3 5 4 4 3 3 3 1 2 2 1 2 2 2 2 3 4 5 4 4 4 3 3 2 2 5 1 1 3 4 1 3 2 4 4 4 3 1 5 3 5 4 5 5 7 7 6 7 7
3 3 3 3 2 3 3 3 4 5 3 4 2 2 2 2 2 1 1 1 1 2 3 4 4 4 4 4 4 5 4 2 3 4 2 3 3 4 5 5 3 4 4 2 5 6 5 5 5 7 6 7 7 8
2 2 2 2 2 3 3 3 3 1 3 3 3 2 2 2 2 0 0 1 2 2 2 2 2 3 3 4 4 4 4 4 2 2 2 3 4 2 3 4 4 2 1 3 4 5 6 6 6 7 6 5 5 6
2 2 3 3 2 1 3 3 4 5 3 3 2 3 3 3 2 2 2 2 5 3 3 2 2 2 3 3 4 4 5 5 4 4 3 4 4 4 4 4 4 3 3 2 2 3 4 5 6 7 8 8 6 5
2 2 2 2 1 2 5 5 5 3 3 1 3 3 3 2 3 3 3 4 3 2 2 2 2 2 3 1 1 3 4 4 3 4 3 2 3 4 3 1 1 1 2 4 5 4 1 3 6 8 9 8 6 6
1 3 2 3 4 5 5 3 3 4 6 4 3 2 2 1 3 5 5 3 2 2 2 1 1 1 1 1 2 2 3 3 3 3 3 1 2 2 1 1 3 3 2 4 5 5 6 7 7 5 7 7 6 6
2 1 1 3 3 4 2 4 4 4 3 4 3 3 2 1 1 6 9 7 4 3 2 3 2 2 2 2 0 0 2 3 3 3 3 3 3 3 4 4 1 3 4 4 4 4 5 5 5 7 7 7 7 7
3 5 1 3 3 6 5 2 2 2 2 1 2 1 3 3 4 3 7 9 6 6 6 4 3 2 2 1 1 1 1 3 3 3 5 3 4 4 4 4 4 3 2 4 4 4 6 7 6 6 6 8 9 10
2 2 2 3 4 5 4 3 3 3 2 4 4 4 2 2 4 3 2 7 7 7 6 5 5 4 5 5 4 3 4 3 3 3 4 6 6 6 4 4 4 3 4 2 1 3 7 9 7 7 6 8 9 10
Wind_Direction
296 303 272 298 316 337 39 18 353 328 325 332 337 338 328 331 349 105 265 241 128 256 276 237 233 209 340 221 248 299 352 326 2 102 140 178 184 189 225 201 194 244 176 215 116 145 256 188 160 165 193 80 132 156
292 296 288 270 295 319 331 292 304 319 318 323 331 326 325 329 315 120 218 275 308 204 251 296 235 242 214 221 133 284 233 327 242 38 229 211 204 150 196 221 188 214 215 196 172 205 234 168 142 94 126 133 170 145
280 282 290 281 282 295 286 281 290 304 308 312 319 324 324 313 317 88 168 257 54 288 288 249 248 264 221 227 210 186 271 234 229 184 207 297 274 110 204 223 130 220 182 195 138 191 138 103 73 96 124 140 150 131
318 304 279 283 284 269 277 267 272 293 311 322 314 311 312 305 309 315 140 191 110 258 262 278 321 287 213 257 193 213 239 297 340 62 327 158 231 33 285 277 166 166 78 151 135 59 92 81 127 150 135 112 101 104
301 313 304 291 278 239 260 262 258 277 296 312 316 291 296 291 307 334 194 210 186 199 296 300 298 269 259 238 230 221 222 226 223 226 224 230 188 78 291 321 273 173 173 139 227 188 143 187 178 159 131 139 133 126
286 294 304 300 307 268 253 254 250 265 288 300 319 312 294 308 52 33 1 58 147 197 275 292 276 273 244 211 226 213 201 176 178 168 207 260 228 102 158 297 262 270 172 188 189 157 198 139 139 132 132 142 133 137
265 271 280 290 295 295 293 271 250 262 287 305 307 304 292 286 100 157 195 175 26 327 264 286 289 274 271 225 165 130 135 184 148 178 197 203 281 184 157 213 262 262 122 176 129 103 72 142 165 165 133 138 133 114
266 261 265 275 281 293 291 293 254 248 281 299 297 285 252 233 25 313 268 265 160 169 271 268 272 326 346 295 159 146 132 146 161 178 89 181 280 165 230 214 216 235 186 169 168 163 152 128 108 108 125 130 113 118
259 262 258 262 276 284 291 297 238 218 280 302 102 82 52 78 247 241 316 74 51 145 266 246 253 269 346 329 312 342 69 136 205 162 205 128 204 217 204 200 211 202 179 197 181 99 125 140 135 133 124 117 124 132
254 255 256 252 255 267 278 295 200 183 209 145 59 52 260 219 288 334 35 219 210 211 224 248 242 264 1 334 321 135 198 222 164 226 122 189 243 237 242 230 208 191 188 140 108 110 115 121 134 128 123 125 129 133
249 246 244 246 242 253 262 278 177 154 111 96 161 242 291 329 53 62 251 208 203 244 214 240 215 245 290 251 212 342 319 197 202 239 159 225 252 210 230 227 222 195 151 173 158 159 154 143 139 131 120 110 111 114
248 245 238 236 228 239 255 220 177 151 172 138 137 270 325 290 193 253 232 212 217 248 226 204 235 197 261 185 213 151 265 307 220 341 174 234 246 213 198 214 194 166 159 146 134 131 130 123 127 119 117 114 106 103
247 240 233 222 209 225 258 195 166 135 103 58 40 245 194 183 204 221 217 213 244 226 231 318 289 238 272 172 135 237 256 236 323 230 227 222 231 199 190 168 126 125 120 121 118 115 114 113 116 119 121 120 117 108
247 233 208 203 213 223 258 178 146 130 100 201 199 240 227 203 229 211 254 270 244 262 273 273 247 222 196 138 161 195 276 250 253 255 238 242 244 168 140 137 124 129 129 123 123 123 122 120 119 120 122 128 122 119
271 214 197 219 221 229 223 160 149 80 119 201 242 242 225 236 264 228 230 263 261 245 225 295 236 261 175 168 206 189 242 251 216 261 295 310 10 131 127 129 128 127 124 117 120 116 118 121 122 123 130 131 127 129
190 227 229 232 193 178 161 145 90 64 179 221 223 249 243 268 278 342 286 267 250 198 209 214 254 205 150 171 184 206 221 233 244 265 333 306 80 96 121 126 124 123 125 124 135 127 133 136 138 140 138 142 149 151
162 220 194 151 137 134 131 91 94 161 225 226 248 231 222 281 250 243 234 245 168 135 253 272 270 234 101 199 234 200 224 267 328 327 16 77 121 108 114 120 124 129 128 130 127 137 133 116 115 120 141 173 147 157
108 235 186 139 122 101 56 83 144 172 245 241 245 253 212 232 251 257 264 234 152 174 228 270 287 281 246 193 252 278 257 219 14 13 61 71 108 96 93 86 90 126 127 129 131 128 125 132 146 167 158 158 144 142
250 147 142 133 116 103 131 197 170 240 233 237 248 235 234 255 249 248 260 233 168 121 303 308 331 349 327 300 300 350 254 142 113 89 73 61 80 98 94 69 52 50 120 129 131 147 163 168 172 167 161 152 167 162
110 119 123 97 56 62 168 217 173 232 256 231 247 262 221 229 285 283 153 157 117 74 336 0 334 285 229 251 246 153 93 87 136 99 75 54 54 91 86 95 64 8 87 97 96 104 111 127 180 169 167 169 153 174
67 131 119 91 48 216 260 223 213 225 239 223 248 213 286 339 331 327 272 193 52 164 166 244 238 260 264 268 328 49 95 114 61 103 119 106 89 83 45 360 350 346 176 140 145 152 165 195 200 176 160 162 151 152
104 133 90 206 249 223 243 217 219 246 200 248 338 46 277 300 291 314 136 70 40 2 351 326 324 333 329 333 20 43 30 84 86 80 77 101 114 130 233 253 273 212 199 176 178 201 209 208 179 144 128 127 119 117
146 161 217 194 229 226 264 19 230 295 262 278 358 346 316 308 261 334 71 64 75 348 295 291 302 295 272 112 127 109 130 98 87 81 316 269 265 266 267 263 209 180 192 259 207 208 187 143 124 121 120 120 122 116
252 238 230 227 211 237 225 213 193 217 221 253 208 215 179 244 357 59 82 53 303 316 340 340 343 338 14 59 172 233 324 121 91 78 233 170 133 13 354 86 203 221 197 119 123 113 117 114 111 124 135 135 134 139
262 246 167 273 244 250 224 187 176 202 226 170 204 208 142 106 94 89 137 334 329 343 338 331 355 353 333 316 64 10 351 169 182 28 331 312 107 73 54 43 60 44 60 107 109 124 121 129 132 139 144 145 149 157
254 249 169 292 293 271 333 312 187 192 182 160 207 133 166 120 89 123 152 352 312 326 335 344 341 343 6 2 353 8 349 356 140 96 336 45 49 133 142 127 94 358 5 139 134 143 162 154 138 136 142 148 152 146
282 290 323 336 317 290 285 274 285 24 18 68 113 80 67 79 68 316 186 240 244 228 250 272 293 308 320 326 321 320 330 5 35 124 96 58 49 81 146 144 143 204 334 81 130 156 172 175 172 171 157 142 163 155
257 269 301 321 284 247 285 310 358 16 26 7 94 48 50 29 15 323 268 244 271 236 211 223 236 251 272 283 308 331 346 354 16 89 90 56 49 44 47 57 76 108 97 59 123 143 171 179 167 156 154 153 148 144
254 236 238 273 289 17 26 22 1 352 314 35 66 59 61 24 313 308 292 314 352 82 132 166 236 271 267 265 96 47 10 12 63 96 81 56 15 345 5 56 41 74 115 95 62 33 58 147 145 148 145 138 133 131
301 182 279 62 50 43 358 48 39 22 38 54 70 102 104 63 3 4 3 12 50 77 72 80 72 75 77 95 52 38 29 27 36 96 106 201 242 265 301 282 212 189 136 95 92 85 66 88 87 88 114 124 130 134
347 301 63 63 77 104 142 77 68 67 55 46 41 37 35 130 323 28 12 7 36 49 49 53 60 36 79 90 115 16 353 356 337 315 315 296 307 344 327 349 317 158 156 151 149 136 127 114 114 121 129 135 140 150
356 20 41 82 92 135 161 201 208 122 183 184 122 344 352 27 42 28 9 4 21 38 33 43 43 24 347 294 306 347 335 356 10 3 19 30 57 62 52 37 32 50 150 181 185 168 154 143 142 149 154 159 163 160
16 356 353 128 124 164 201 126 114 109 103 82 45 39 42 62 57 4 13 21 11 7 14 24 29 32 39 54 67 75 48 42 39 18 34 36 40 41 38 18 15 29 47 71 188 197 160 146 152 157 158 155 155 152